7 * 24
多渠道服务支持
STARLINK-34673是美国太空探索技术公司(SpaceX)于2025年8月4日发射的星链(Starlink)低轨互联网卫星,隶属于全球规模最大的低轨卫星互联网星座,运行在近地轨道。该卫星旨在为全球偏远、基础设施缺失区域提供高速低延迟宽带互联网服务,助力提升全球网络覆盖水平,推动星链星座组网扩容。
美国
(US)
| 数据来源 | 国际轨道数据 |
| 星历时间: | 2026-09-12T14:08:15+0800 19小时前 查看轨道信息 |
| 半长轴: | 6848.85km |
| 偏心率: | 0.0000233 |
| 轨道倾角: | 53.155° |
| 近地点辐角 | 38.327° |
| 升交点赤经 | 240.098° |
| 平近点角 | 321.775° |
| 近地点: | 470.553km |
| 远地点: | 470.873km |
| 周期: | 94.013分钟 |
| 每日圈数: | 15.317091 |